TimeCST,TemperatureF,Dew PointF,Humidity,Sea Level PressureIn,VisibilityMPH,Wind Direction,Wind SpeedMPH,Gust SpeedMPH,PrecipitationIn,Events,Conditions,WindDirDegrees,DateUTC
12:00 AM,41,23,36,29.97,,,5.8,,,,,,2012-10-07 06:00:00
12:00 AM,40.8,23.2,50,29.97,-9999.0,North,-9999.0,-,N/A,,Unknown,0,2012-10-07 06:00:00
1:00 AM,34.2,22.8,63,29.97,-9999.0,North,-9999.0,-,N/A,,Unknown,0,2012-10-07 07:00:00
2:00 AM,31.8,22.6,69,29.97,-9999.0,North,-9999.0,-,N/A,,Unknown,0,2012-10-07 08:00:00
3:00 AM,31.6,24.4,75,29.95,-9999.0,North,-9999.0,-,N/A,,Unknown,0,2012-10-07 09:00:00
4:00 AM,30.9,23.7,75,29.94,-9999.0,North,-9999.0,-,N/A,,Unknown,0,2012-10-07 10:00:00
5:00 AM,30.0,25.2,82,29.94,-9999.0,North,-9999.0,-,N/A,,Unknown,0,2012-10-07 11:00:00
6:00 AM,28,24,80,29.96,,,10.4,,,,,,2012-10-07 12:00:00
6:00 AM,28.4,24.3,84,29.96,-9999.0,North,-9999.0,-,N/A,,Unknown,0,2012-10-07 12:00:00
7:00 AM,26.2,23.0,88,29.95,-9999.0,North,-9999.0,-,N/A,,Unknown,0,2012-10-07 13:00:00
8:00 AM,28.4,24.8,86,29.95,-9999.0,North,-9999.0,-,N/A,,Unknown,0,2012-10-07 14:00:00
9:00 AM,36.5,28.0,71,29.94,-9999.0,North,-9999.0,-,N/A,,Unknown,0,2012-10-07 15:00:00
10:00 AM,41.2,29.8,64,29.93,-9999.0,North,-9999.0,-,N/A,,Unknown,0,2012-10-07 16:00:00
12:00 PM,45,30,43,29.90,,,6.9,,,,,,2012-10-07 18:00:00
12:00 PM,44.6,29.8,56,29.90,-9999.0,North,-9999.0,-,N/A,,Unknown,0,2012-10-07 18:00:00
1:00 PM,46.6,29.5,51,29.87,-9999.0,North,-9999.0,-,N/A,,Unknown,0,2012-10-07 19:00:00
2:00 PM,44.1,35.6,72,29.84,-9999.0,North,-9999.0,-,N/A,,Unknown,0,2012-10-07 20:00:00
3:00 PM,45.0,35.4,69,29.81,-9999.0,North,-9999.0,-,N/A,,Unknown,0,2012-10-07 21:00:00
4:00 PM,44.6,37.2,75,29.77,-9999.0,North,-9999.0,-,N/A,,Unknown,0,2012-10-07 22:00:00
5:00 PM,45.5,37.0,72,29.75,-9999.0,North,-9999.0,-,N/A,,Unknown,0,2012-10-07 23:00:00
6:00 PM,44,36,66,29.71,,,9.2,,,,,,2012-10-08 00:00:00
6:00 PM,44.4,36.5,74,29.71,-9999.0,North,-9999.0,-,N/A,,Unknown,0,2012-10-08 00:00:00
7:00 PM,43.9,35.8,73,29.68,-9999.0,North,-9999.0,-,N/A,,Unknown,0,2012-10-08 01:00:00
8:00 PM,41.5,34.5,76,29.64,-9999.0,North,-9999.0,-,N/A,,Unknown,0,2012-10-08 02:00:00
9:00 PM,42.8,35.4,75,29.61,-9999.0,North,-9999.0,-,N/A,,Unknown,0,2012-10-08 03:00:00
10:00 PM,43.9,36.5,75,29.59,-9999.0,North,-9999.0,-,N/A,,Unknown,0,2012-10-08 04:00:00
11:00 PM,46.4,37.2,70,29.60,-9999.0,North,-9999.0,-,N/A,,Unknown,0,2012-10-08 05:00:00